Regional Weather Roundup
Issued by NWS Upton, NY

Home | Current Version | Previous Version | Text Only | Print | Product List | Glossary On
Versions: 1 2 3 4 5 6 7 8 9 10 11 12 13 14 15 16 17 18 19 20 21 22 23 24 25 26 27 28 29 30 31 32 33 34 35 36 37 38 39 40 41 42 43 44 45 46 47 48 49 50
905
ASUS41 KOKX 190708
RWROKX

REGIONAL WEATHER ROUNDUP
NATIONAL WEATHER SERVICE NEW YORK NY
200 AM EST SUN NOV 19 2017

NOTE: "FAIR" INDICATES FEW OR NO CLOUDS BELOW 12,000 FEET WITH NO
SIGNIFICANT WEATHER AND/OR OBSTRUCTIONS TO VISIBILITY.

NYZ071-072-176-178-NJZ106-104-190800-
NEW YORK CITY METRO AREA

CITY           SKY/WX    TMP DP  RH WIND       PRES   REMARKS
Central Park   LGT RAIN  58  51  78 VRB3      29.35F
Bronx Bot Gard   N/A     55  48  76 S2        29.36R
LaGuardia APRT LGT RAIN  58  51  78 S12       29.32F
Kennedy INTL   CLOUDY    57  53  86 S22       29.35F
Breezy Point     N/A     57 N/A N/A S13         N/A
Newark/Liberty LGT RAIN  58  51  78 S12       29.33F
Teterboro      RAIN      51  49  92 CALM      29.32F
$$

NYZ177-179-078>081-190800-
LONG ISLAND NEW YORK

CITY           SKY/WX    TMP DP  RH WIND       PRES   REMARKS
Jones Beach      N/A     57 N/A N/A SW17G25     N/A
Matinecock PT    N/A     57 N/A N/A S9G16       N/A
Farmingdale    CLOUDY    58  53  84 SW23G31   29.36F
MacArthur/ISP  CLOUDY    59  55  87 SW20G33   29.37F
Shirley        CLOUDY    60  56  86 S15G28    29.38F
Mt Sinai Harb    N/A    N/A N/A N/A S17G29      N/A
Westhampton    CLOUDY    61  55  81 SW15G30   29.40F
East Hampton   CLOUDY    60  55  85 SW16G26   29.40F
Southold       NOT AVBL
Montauk        NOT AVBL
$$

NYZ052-065-067-190800-
HUDSON VALLEY

CITY           SKY/WX    TMP DP  RH WIND       PRES   REMARKS
White Plains   LGT RAIN  53  51  93 S6        29.33F FOG
Larchmont Harb   N/A     54 N/A N/A S13         N/A
Croton On Huds   N/A     46 N/A N/A MISG        N/A
Newburgh       CLOUDY    50  48  93 CALM      29.31F
Montgomery     LGT RAIN  42  41  96 NE3       29.29F FOG
Poughkeepsie   CLOUDY    45  44  97 NW3       29.30F FOG
Albany         LGT RAIN  46  43  89 S14G24    29.25F
$$

NJZ001-105-106-008-010-013-015-019>022-104-190800-
NEW JERSEY

CITY           SKY/WX    TMP DP  RH WIND       PRES   REMARKS
Newark/Liberty LGT RAIN  58  51  78 S12       29.33F
Teterboro      RAIN      51  49  92 CALM      29.32F
Caldwell       LGT RAIN  43  43 100 CALM      29.33F FOG
Somerville     LGT RAIN  44  44 100 CALM      29.31F FOG
Linden         LGT RAIN  58  51  77 SW3       29.32F
Perth Amboy      N/A     59 N/A N/A SW14G21     N/A
Sussex         LGT RAIN  42  42 100 S3        29.28F FOG
Andover        NOT AVBL
Trenton        CLOUDY    60  52  74 SW21G28   29.34S
Millville      LGT RAIN  62  56  80 VRB5G17   29.41F
Atlantic City  MOCLDY    61  55  81 SW16G25   29.40F
Wrightstown    LGT RAIN  60  54  79 SW22G35   29.34S
Toms River     MOCLDY    59  53  80 S10       29.37F
Belmar         LGT RAIN  58  52  80 S8        29.37F
$$

PAZ047>061-062-071-190800-
EASTERN PENNSYLVANIA

CITY           SKY/WX    TMP DP  RH WIND       PRES   REMARKS
Philadelphia   LGT RAIN  60  53  77 SW23G32   29.37S
Allentown      LGT RAIN  49  46  90 CALM      29.30F FOG
Scranton       LGT RAIN  52  47  83 SW16G25   29.19F
$$

CTZ002-004>006-009-010-012-RIZ004-006-007-MAZ004-011-015-190800-
SOUTHERN NEW ENGLAND
 IN CT

CITY           SKY/WX    TMP DP  RH WIND       PRES   REMARKS
Bradley INTL   CLOUDY    40  39  97 CALM      29.34F
Hartford       CLOUDY    57  53  86 S15G21    29.33F
Danbury        CLOUDY    55  51  86 S9G18     29.34F
Wtrbury/Oxford CLOUDY    54  52  93 S9G18     29.35F
Norwalk Harbor   N/A     57 N/A N/A S16         N/A
Bridgeport     CLOUDY    58  52  80 SW20      29.35F
Meriden        CLOUDY    56  52  86 S14G20    29.35F
New Haven      CLOUDY    59  52  77 S14G25    29.36F
Chester        CLOUDY    59  54  82 S17G28    29.37F
Groton         CLOUDY    60  55  83 SW20      29.39F
Wilimantic     CLOUDY    58  53  84 S15G24    29.37F

 IN RI

CITY           SKY/WX    TMP DP  RH WIND       PRES   REMARKS
Providence     CLOUDY    59  56  89 S14       29.40F
Block Island   CLOUDY    61  56  83 SW24G35   29.42F
Westerly       CLOUDY    61  57  87 SW16G24   29.41F
 IN MA

CITY           SKY/WX    TMP DP  RH WIND       PRES   REMARKS
Boston         LGT RAIN  53  52  96 S13       29.39F
Worcester      CLOUDY    51  48  89 S16       29.35F
Westfield      CLOUDY    37  36  96 NE3       29.33F FOG
Provincetown   CLOUDY    56  53  90 S15G25    29.44F
Nantucket      CLOUDY    57  55  93 S17       29.50F
$$

ANZ330-335-338-340-345-350-353-355-190800-
COASTAL MARINE OBSERVATIONS


STATION/POSITION TIME  SKY/WX   TEMP    WIND        PRES    VSBY  WAVE
                                AIR SEA DIR/SP/G                  HT/PER
                 (UTC)          (F)     (DEG/KT/KT) (MB)    (MI)  (FT/S)
NY HARB ENTRANCE 0550            60 59  210/ 27/ 33  994.1          9/ 8
20 S FIRE ISLAND 0550            62 58  210/ 29/ 35  995.3         11/ 9
GREAT SOUTH BAY  0630            57 46  220/ 21/ 27   N/A
HUDSON CANYON    0550            65 60  210/ 31/ 39  997.8         12/ 9
KINGS POINT      NOT AVBL
EXECUTION ROCKS  0630            57     170/ 14/ 17   N/A
WESTERN LI SOUND 0549            58     190/ 14/ 17   N/A           1/ 2
CENTRAL LI SOUND 0615            60     200/ 21/ 27   N/A           2
ROBBINS REEF     NOT AVBL
$$


>>>>>>>>>>>>>>>>>>>>>>>>>>>> KEY <<<<<<<<<<<<<<<<<<<<<<<<<<<
>                                                          <
>     SKY/WX - Sky Condition/Present Weather               <
>     TMP    - Temperature in Fahrenheit                   <
>     DP     - Dew Point in Fahrenheit                     <
>     RH     - Relative Humidity in Percent                <
>     WIND   - Direction (from) and Speed in MPH           <
>     PRES   - Mean Sea Level Pressure (inches of Hg)      <
>     WCI    - Wind Chill Index                            <
>     VSB    - VISIBILITY IN MILES                         <
>     HX     - HEAT INDEX                                  <
>     TC     - TEMPERATURE IN CELSIUS                      <
>     VRB    - VARIABLE WIND DIRECTION                     <
>                                                          <
>>>>>>>>>>>>>>>>>>>>>>>>>>>> KEY <<<<<<<<<<<<<<<<<<<<<<<<<<<




USA.gov is the U.S. government's official web portal to all federal, state and local government web resources and services.